OPS 4682 DEB, 19355

Orbit data source: Space-Track

OPS 4682 DEB, 19355 is space debris in LEO originally from a launch on Sat, 03 Apr 1965 UTC launched from the Air Force Western Test Range (AFWTR). Debris objects in space refer to the collection of defunct objects orbiting the Earth. Examples of debris include non-operational satellites, rocket bodies, and fragments generated from explosions, collisions, or faulty payload assembly.

Loading next visibility...
Identifier
19355, 1965-027AT
Orbit
LEO
Country
Flag of USUS
Related business
Manufacturer
Unknown
Mission
Spacecraft
Bus & Motor
Unknown
Mass
Unknown
Launch date (UTC)
1965-04-03 (61 years ago)
Launch vehicle
Unknown
Launch site
Air Force Western Test Range (AFWTR)
Object type
Payload
Rocket body
Debris
Shape & HBR
Unknown shape, 0.1 m
Radar Cross Section
Small (<0.1 m²)

Expand to show TLE details & history
Last TLE update: 2 days ago

TLE from 2 days ago
0 OPS 4682 DEB
1 19355U 65027AT  25293.17517475  .00000667  00000-0  22462-2 0  9998
2 19355  90.2375 352.3922 0040756 322.0641  94.9836 12.98121660771568
Epoch: 2025-10-20T04:12Z
TLE epoch observation values (Epoch: 2025-10-20T04:12:15.098Z)
Latitude
57.60171°
Longitude
-99.92436°
Altitude
1,282.034 km
Speed
7.219 km/s
True Right ascension
23h 28m 04s
True Declination
57° 27' 24"
Sunlit
Object was in full shadow at epoch
Visualization orbit readout
Latitude
Unknown
Longitude
Unknown
Altitude
Unknown
Speed
Unknown
Apparent Right ascension
Unknown
Apparent Declination
Unknown
Sunlit
N/A
Visualization observer readout
Local Sidereal Time
12:40:32
Azimuth
Unknown
Elevation
Unknown
Doppler factor
Unknown
Orbital elements
Apogee altitude
1,297.741 km
Perigee altitude
1,235.428 km
Semi-major axis
7,644.722 km
Eccentricity
0.00408
Inclination
90.2375°
RAAN
352.3922°
Arg. of periapsis
322.0641°
True anomaly
95.44865°
Mean anomaly
94.9836°
Eccentric anomaly
95.21615°
Mean motion
3.24714 °/min
Orbital period
110.87 mins
BSTAR
0.0022462
Loading maneuver chart data...
Computing Atmospheric mass density...
Loading historical data...
Loading historical data...
Loading historical data...
Loading historical data...
Loading historical data...
Loading historical data...
Loading historical data...

Documentation

Showing up to 5 results
|